FW1555 Weather Reports


Display with metric or nautical units.
time (UTC)temp
F
wind
direction
speed
MPH
gust
MPH
rain 1hr
in
rain 24hr
in
rain mn
in
humidity
%
barometer
mb
20260506214551 62 0 0.0 9.0 0.00 0.11 0.11 96 1006.2
20260506213103 62 0 0.0 7.0 0.00 0.11 0.11 96 1006.1
20260506211544 62 0 0.0 9.0 0.00 0.11 0.11 97 1006.1
20260506210054 62 0 0.0 10.0 0.00 0.11 0.11 97 1005.9
20260506204543 62 0 1.0 9.0 0.01 0.11 0.11 97 1005.7
20260506203043 62 231 0.0 7.0 0.04 0.11 0.11 97 1005.9
20260506201545 62 0 0.0 9.0 0.07 0.11 0.11 97 1006.0
20260506200041 61 0 2.0 10.0 0.08 0.11 0.11 96 1006.3
20260506194546 61 174 1.0 10.0 0.08 0.10 0.10 96 1006.7
20260506193044 62 0 1.0 7.0 0.05 0.07 0.07 95 1006.9
20260506191543 62 0 1.0 8.0 0.02 0.04 0.04 93 1007.0
20260506190048 63 0 1.0 8.0 0.01 0.03 0.03 89 1006.9
20260506184558 64 0 0.0 11.0 0.00 0.02 0.02 88 1006.9
20260506183043 64 0 1.0 12.0 0.00 0.02 0.02 87 1007.1
20260506181551 64 153 1.0 10.0 0.00 0.02 0.02 89 1006.9
20260506180048 64 0 1.0 11.0 0.01 0.02 0.02 89 1007.2
20260506174545 64 217 0.0 7.0 0.01 0.02 0.02 91 1007.3
20260506173049 63 0 1.0 10.0 0.02 0.02 0.02 89 1007.2
20260506171600 64 171 0.0 8.0 0.02 0.02 0.02 88 1007.3
20260506170053 64 0 0.0 5.0 0.01 0.01 0.01 87 1007.7
20260506164549 65 0 0.0 12.0 0.01 0.01 0.01 83 1007.8
20260506163057 66 140 1.0 11.0 0.00 0.00 0.00 79 1008.1
20260506161550 67 161 0.0 13.0 0.00 0.00 0.00 77 1008.6
20260506160058 68 284 0.0 11.0 0.00 0.00 0.00 75 1008.6
20260506154545 68 273 2.0 10.0 0.00 0.00 0.00 74 1008.5
20260506153046 68 0 3.0 14.0 0.00 0.00 0.00 73 1008.7
20260506151547 69 238 4.0 16.0 0.00 0.00 0.00 72 1009.0
20260506150052 69 171 2.0 14.0 0.00 0.00 0.00 71 1008.8
20260506144559 69 189 1.0 10.0 0.00 0.00 0.00 72 1008.8
20260506143041 68 248 3.0 17.0 0.00 0.00 0.00 73 1008.8
20260506141547 68 0 5.0 13.0 0.00 0.00 0.00 72 1008.8
20260506140047 68 186 4.0 15.0 0.00 0.00 0.00 73 1009.0
20260506134549 68 221 6.0 15.0 0.00 0.00 0.00 73 1009.2
20260506133048 68 209 3.0 14.0 0.00 0.00 0.00 74 1008.8
20260506131551 67 0 2.0 15.0 0.00 0.00 0.00 75 1009.2
20260506130050 67 182 2.0 13.0 0.00 0.00 0.00 76 1008.6
20260506124546 66 242 1.0 9.0 0.00 0.00 0.00 77 1008.6
20260506123051 66 251 1.0 14.0 0.00 0.00 0.00 77 1008.8
20260506121544 66 0 2.0 14.0 0.00 0.00 0.00 77 1009.0
20260506120053 66 210 1.0 14.0 0.00 0.00 0.00 78 1009.2
20260506114553 65 178 2.0 13.0 0.00 0.00 0.00 80 1009.3
20260506113047 65 218 1.0 8.0 0.00 0.00 0.00 81 1009.2
20260506111548 64 188 2.0 8.0 0.00 0.00 0.00 81 1009.2
20260506110044 64 0 0.0 9.0 0.00 0.00 0.00 82 1009.0
20260506104545 63 0 0.0 9.0 0.00 0.00 0.00 83 1009.2
20260506103052 63 0 0.0 8.0 0.00 0.00 0.00 83 1009.1
20260506101547 63 0 0.0 8.0 0.00 0.00 0.00 84 1009.0
20260506094546 63 0 0.0 7.0 0.00 0.00 0.00 84 1008.8
20260506093044 63 0 0.0 6.0 0.00 0.00 0.00 83 1008.9
20260506091552 63 0 0.0 7.0 0.00 0.00 0.00 82 1008.8
20260506090047 63 0 0.0 5.0 0.00 0.00 0.00 82 1008.9
20260506084546 63 0 1.0 8.0 0.00 0.00 0.00 81 1009.1
20260506083048 64 0 0.0 5.0 0.00 0.00 0.00 80 1009.2
20260506081548 64 0 0.0 6.0 0.00 0.00 0.00 79 1009.1
20260506073048 66 0 0.0 9.0 0.00 0.00 0.00 76 1009.1
20260506071555 66 0 1.0 10.0 0.00 0.00 0.00 75 1009.3
20260506061547 66 0 1.0 8.0 0.00 0.00 0.00 72 1009.3
20260506044548 68 250 4.0 15.0 0.00 0.00 0.00 66 1009.8
20260506043045 68 169 2.0 11.0 0.00 0.00 0.00 66 1009.8
20260506041553 68 194 1.0 9.0 0.00 0.00 0.00 65 1009.8
20260506040044 68 194 1.0 11.0 0.00 0.00 0.00 65 1009.7
20260506034547 68 0 0.0 7.0 0.00 0.00 0.00 66 1009.8
20260506033046 68 0 1.0 8.0 0.00 0.00 0.00 65 1009.7
20260506031542 69 0 1.0 9.0 0.00 0.00 0.00 64 1009.6
20260506030057 69 198 1.0 8.0 0.00 0.00 0.00 63 1009.5
20260506024554 70 175 1.0 10.0 0.00 0.00 0.00 62 1009.6
20260506023047 71 0 1.0 10.0 0.00 0.00 0.00 60 1009.6
20260506021544 71 144 1.0 11.0 0.00 0.00 0.00 60 1009.5
20260506020047 70 258 1.0 11.0 0.00 0.00 0.00 60 1009.4
20260506014556 71 0 0.0 8.0 0.00 0.00 0.00 57 1009.3
20260506013048 74 0 1.0 12.0 0.00 0.00 0.00 52 1009.0
20260506011551 76 239 3.0 11.0 0.00 0.00 0.00 46 1008.7
20260506010056 77 230 4.0 14.0 0.00 0.00 0.00 44 1008.6
20260506004553 77 0 1.0 13.0 0.00 0.00 0.00 41 1008.5
20260506003046 78 0 1.0 11.0 0.00 0.00 0.00 39 1008.3
20260506001553 78 216 3.0 13.0 0.00 0.00 0.00 39 1008.0
20260506000058 78 269 3.0 15.0 0.00 0.00 0.00 38 1008.0
20260505234543 79 0 6.0 17.0 0.00 0.00 0.00 37 1007.9
20260505233048 79 0 2.0 12.0 0.00 0.00 0.00 36 1007.7
20260505231547 79 199 1.0 11.0 0.00 0.00 0.00 35 1007.5
20260505230050 80 267 8.0 22.0 0.00 0.00 0.00 34 1007.3
20260505224550 81 266 8.0 18.0 0.00 0.00 0.00 34 1007.0
20260505223052 81 200 12.0 22.0 0.00 0.00 0.00 33 1006.9
20260505221548 82 248 5.0 21.0 0.00 0.00 0.00 33 1006.8
20260505220047 81 222 9.0 25.0 0.00 0.00 0.00 35 1006.9